TimeEST,TemperatureF,Dew PointF,Humidity,Sea Level PressureIn,VisibilityMPH,Wind Direction,Wind SpeedMPH,Gust SpeedMPH,PrecipitationIn,Events,Conditions,WindDirDegrees,DateUTC
12:53 AM,53.1,48.0,83,30.30,10.0,NNE,3.5,-,N/A,,Clear,30,2012-11-30 05:53:00
1:53 AM,52.0,48.0,86,30.30,10.0,Calm,Calm,-,N/A,,Clear,0,2012-11-30 06:53:00
2:53 AM,48.9,46.9,93,30.31,8.0,Calm,Calm,-,N/A,,Mostly Cloudy,0,2012-11-30 07:53:00
3:53 AM,50.0,48.0,93,30.32,7.0,Calm,Calm,-,N/A,,Mostly Cloudy,0,2012-11-30 08:53:00
4:53 AM,48.9,46.9,93,30.31,5.0,Calm,Calm,-,N/A,,Scattered Clouds,0,2012-11-30 09:53:00
5:53 AM,46.0,44.1,93,30.31,6.0,Calm,Calm,-,N/A,,Partly Cloudy,0,2012-11-30 10:53:00
6:53 AM,48.9,46.9,93,30.32,5.0,NNE,4.6,-,N/A,,Scattered Clouds,30,2012-11-30 11:53:00
7:53 AM,52.0,50.0,93,30.32,6.0,NE,6.9,-,N/A,,Mostly Cloudy,50,2012-11-30 12:53:00
8:53 AM,54.0,51.1,90,30.33,7.0,NE,5.8,-,N/A,,Partly Cloudy,50,2012-11-30 13:53:00
9:53 AM,59.0,53.1,81,30.34,10.0,East,6.9,-,N/A,,Clear,80,2012-11-30 14:53:00
10:53 AM,66.0,53.1,63,30.33,10.0,East,6.9,-,N/A,,Clear,80,2012-11-30 15:53:00
11:53 AM,69.8,55.4,60,30.28,10.0,East,8.1,-,N/A,,Clear,80,2012-11-30 16:53:00
12:53 PM,72.0,53.1,51,30.29,10.0,East,8.1,-,N/A,,Clear,100,2012-11-30 17:53:00
1:53 PM,73.0,51.1,46,30.27,10.0,East,6.9,-,N/A,,Mostly Cloudy,80,2012-11-30 18:53:00
2:53 PM,72.0,53.1,51,30.25,10.0,SSE,8.1,-,N/A,,Mostly Cloudy,160,2012-11-30 19:53:00
3:53 PM,72.0,54.0,53,30.24,9.0,SE,6.9,-,N/A,,Partly Cloudy,140,2012-11-30 20:53:00
4:53 PM,69.1,55.9,63,30.25,10.0,SSE,5.8,-,N/A,,Partly Cloudy,150,2012-11-30 21:53:00
5:53 PM,63.0,55.9,78,30.26,10.0,Calm,Calm,-,N/A,,Scattered Clouds,0,2012-11-30 22:53:00
6:53 PM,57.9,55.0,90,30.26,10.0,Calm,Calm,-,N/A,,Clear,0,2012-11-30 23:53:00
7:53 PM,60.1,55.9,86,30.27,10.0,Calm,Calm,-,N/A,,Overcast,0,2012-12-01 00:53:00
8:53 PM,57.9,55.0,90,30.28,8.0,NNE,3.5,-,N/A,,Scattered Clouds,30,2012-12-01 01:53:00
10:53 PM,57.0,53.1,87,30.27,10.0,NE,5.8,-,N/A,,Clear,50,2012-12-01 03:53:00
11:53 PM,53.1,51.1,93,30.27,10.0,Calm,Calm,-,N/A,,Clear,0,2012-12-01 04:53:00